TimeEST,TemperatureF,Dew PointF,Humidity,Sea Level PressureIn,VisibilityMPH,Wind Direction,Wind SpeedMPH,Gust SpeedMPH,PrecipitationIn,Events,Conditions,WindDirDegrees,DateUTC
12:58 AM,28.8,22.1,76,30.24,10.0,NW,17.3,23.0,N/A,,Overcast,320,2014-02-06 05:58:00
1:03 AM,28.4,23.0,80,30.22,10.0,NW,12.7,23.0,N/A,,Overcast,320,2014-02-06 06:03:00
1:58 AM,28.0,21.2,76,30.26,10.0,NNW,10.4,-,N/A,,Overcast,330,2014-02-06 06:58:00
2:48 AM,28.4,21.2,74,30.21,10.0,NW,15.0,21.9,N/A,,Scattered Clouds,310,2014-02-06 07:48:00
2:58 AM,27.7,21.2,77,30.24,10.0,NW,15.0,21.9,N/A,,Scattered Clouds,320,2014-02-06 07:58:00
3:58 AM,27.7,21.2,77,30.25,10.0,NW,13.8,-,N/A,,Mostly Cloudy,310,2014-02-06 08:58:00
4:03 AM,28.4,21.2,74,30.22,10.0,NNW,15.0,21.9,N/A,,Scattered Clouds,330,2014-02-06 09:03:00
4:58 AM,27.3,21.0,77,30.27,10.0,NW,10.4,-,N/A,,Clear,320,2014-02-06 09:58:00
5:58 AM,27.7,21.2,77,30.27,10.0,NW,12.7,20.7,N/A,,Mostly Cloudy,320,2014-02-06 10:58:00
6:58 AM,27.7,21.2,77,30.29,10.0,NW,12.7,17.3,N/A,,Overcast,320,2014-02-06 11:58:00
7:58 AM,27.9,21.2,76,30.31,10.0,NW,10.4,-,N/A,,Mostly Cloudy,320,2014-02-06 12:58:00
8:58 AM,29.3,21.9,74,30.32,10.0,NW,8.1,-,N/A,,Mostly Cloudy,320,2014-02-06 13:58:00
9:58 AM,34.0,23.4,65,30.33,10.0,NW,11.5,-,N/A,,Mostly Cloudy,320,2014-02-06 14:58:00
10:58 AM,36.5,23.4,59,30.35,10.0,Variable,6.9,-,N/A,,Mostly Cloudy,0,2014-02-06 15:58:00
11:58 AM,39.9,23.5,52,30.32,10.0,Variable,4.6,-,N/A,,Mostly Cloudy,0,2014-02-06 16:58:00
12:58 PM,38.5,23.9,56,30.30,10.0,WNW,8.1,-,N/A,,Overcast,300,2014-02-06 17:58:00
1:58 PM,37.8,24.3,58,30.27,10.0,WNW,10.4,-,N/A,,Overcast,290,2014-02-06 18:58:00
2:58 PM,37.4,23.7,58,30.24,10.0,NNW,8.1,-,N/A,,Overcast,330,2014-02-06 19:58:00
3:58 PM,37.0,24.3,60,30.28,10.0,NW,10.4,-,N/A,,Overcast,310,2014-02-06 20:58:00
4:58 PM,36.1,23.7,61,30.34,10.0,NW,8.1,-,N/A,,Overcast,320,2014-02-06 21:58:00
5:58 PM,34.9,22.6,61,30.33,10.0,NW,8.1,-,N/A,,Overcast,320,2014-02-06 22:58:00
6:58 PM,34.2,22.5,62,30.33,10.0,NW,9.2,-,N/A,,Overcast,310,2014-02-06 23:58:00
7:27 PM,33.8,23.0,65,30.29,7.0,NNW,6.9,-,N/A,Snow,Light Snow,330,2014-02-07 00:27:00
7:47 PM,32.0,23.0,69,30.29,10.0,NW,6.9,-,N/A,,Overcast,310,2014-02-07 00:47:00
7:58 PM,33.6,23.7,67,30.33,10.0,NW,8.1,-,0.00,,Overcast,310,2014-02-07 00:58:00
8:58 PM,33.8,22.6,64,30.33,10.0,NW,5.8,-,N/A,,Overcast,310,2014-02-07 01:58:00
10:58 PM,33.6,23.7,67,30.31,10.0,NW,4.6,-,N/A,,Overcast,320,2014-02-07 03:58:00
11:58 PM,30.7,23.7,75,30.29,10.0,WNW,5.8,-,N/A,,Scattered Clouds,290,2014-02-07 04:58:00